Location: *
(41.0833°N, 73.4167°W)
Time: 23:02:49
(UTC+00:00)

Cosmos 1626 Rocket - Pass Details

Date: 22 October 2019
Orbit: 604 x 630 km, 82.5° (Epoch: 11 November)

Event Time Altitude Azimuth Distance (km) Brightness Sun altitude
Rises 10:04:32 0° 184° (S) 2,842 7.0 -13.5°
Reaches altitude 10° 10:06:44 10° 183° (S) 1,943 6.1 -13.1°
Maximum altitude 10:11:02 81° 96° (E) 617 3.6 -12.3°
Drops below altitude 10° 10:15:22 10° 10° (N) 1,963 6.2 -11.5°
Sets 10:17:36 0° 9° (N) 2,874 7.0 -11.1°
